Corbin, Kentucky, United States (40701)
Lat: 36.95N, Lon: 84.1W
Wx Zone: KYZ085
Local Info
Past Weather Observations for Today

NOTE: This archive is for the closest National Weather Service station to Corbin. Information may differ from the station used for current weather conditions.

Click here for Long-term Archive

Time Weather Temperature Dewpoint Humidity Pressure Winds Precip Visibility
15:53
Overcast
37°F / 3°C 27°F / -3°C 65% 29.68 in
(1005 mb)
W 12.7 mph
(W 20 kph)
- 10SM
15:05
Overcast
39°F / 4°C 28°F / -2°C 65% 29.68 in
(1005 mb)
W 16.1 mph
(W 26 kph)
- 10SM
14:53
Overcast
39°F / 4°C 30°F / -1°C 70% 29.68 in
(1005 mb)
W 11.5 mph
(W 19 kph)
0.00 in
(0.00 mm)
10SM
14:43
Mostly Cloudy
39°F / 4°C 30°F / -1°C 70% 29.68 in
(1005 mb)
W 6.9 mph
(W 11 kph)
0.00 in
(0.00 mm)
10SM
14:09
Overcast
37°F / 3°C 32°F / 0°C 81% 29.68 in
(1005 mb)
W 12.7 mph
(W 20 kph)
0.00 in
(0.00 mm)
10SM
14:02
Overcast
37°F / 3°C 32°F / 0°C 81% 29.68 in
(1005 mb)
W 13.8 mph
(W 22 kph)
0.00 in
(0.00 mm)
10SM
13:53
Overcast
Light Snow
37°F / 3°C 34°F / 1°C 87% 29.68 in
(1005 mb)
W 10.4 mph
(W 17 kph)
0.01 in
(0.25 mm)
9SM
13:26
Overcast
Light Snow
36°F / 2°C 30°F / -1°C 81% 29.68 in
(1005 mb)
NW 15 mph
(NW 24 kph)
0.00 in
(0.00 mm)
10SM
13:08
Overcast
Light Snow
36°F / 2°C 32°F / 0°C 87% 29.68 in
(1005 mb)
WNW 13.8 mph
(WNW 22 kph)
0.00 in
(0.00 mm)
6SM
12:53
Overcast
34°F / 1°C 30°F / -1°C 87% 29.68 in
(1005 mb)
WNW 11.5 mph
(WNW 19 kph)
0.05 in
(1.27 mm)
10SM
12:35
Overcast
Light Snow
34°F / 1°C 30°F / -1°C 87% 29.68 in
(1005 mb)
SSW 9.2 mph
(SSW 15 kph)
0.05 in
(1.27 mm)
3SM
12:29
Overcast
Light Snow
34°F / 1°C 30°F / -1°C 87% 29.68 in
(1005 mb)
SSW 10.4 mph
(SSW 17 kph)
0.05 in
(1.27 mm)
1SM
12:11
Overcast
Snow
34°F / 1°C 30°F / -1°C 87% 29.71 in
(1006 mb)
W 21.9 mph
(W 35 kph)
0.03 in
(0.76 mm)
1/2SM
12:05
Overcast
Light Snow
34°F / 1°C 30°F / -1°C 87% 29.71 in
(1006 mb)
W 23 mph
(W 37 kph)
0.02 in
(0.51 mm)
1SM
11:58
Overcast
Light Snow
36°F / 2°C 30°F / -1°C 81% 29.68 in
(1005 mb)
WNW 20.7 mph
(WNW 33 kph)
0.00 in
(0.00 mm)
2 1/2SM
11:53
Overcast
Light Snow
36°F / 2°C 30°F / -1°C 81% 29.68 in
(1005 mb)
W 15 mph
(W 24 kph)
0.01 in
(0.25 mm)
5SM
11:36
Overcast
43°F / 6°C 30°F / -1°C 61% 29.68 in
(1005 mb)
SW 11.5 mph
(SW 19 kph)
0.00 in
(0.00 mm)
10SM
10:53
Mostly Cloudy
41°F / 5°C 34°F / 1°C 76% 29.68 in
(1005 mb)
SSE 10.4 mph
(SSE 17 kph)
- 10SM
10:44
Mostly Cloudy
41°F / 5°C 34°F / 1°C 76% 29.71 in
(1006 mb)
S 10.4 mph
(S 17 kph)
- 10SM
10:35
Overcast
41°F / 5°C 34°F / 1°C 76% 29.71 in
(1006 mb)
SW 10.4 mph
(SW 17 kph)
- 10SM
09:53
Mostly Cloudy
39°F / 4°C 34°F / 1°C 81% 29.71 in
(1006 mb)
SW 6.9 mph
(SW 11 kph)
- 10SM
08:53
Mostly Cloudy
36°F / 2°C 34°F / 1°C 93% 29.71 in
(1006 mb)
SW 4.6 mph
(SW 7 kph)
- 10SM
08:26
Mostly Cloudy
36°F / 2°C 34°F / 1°C 93% 29.71 in
(1006 mb)
SSE 4.6 mph
(SSE 7 kph)
- 10SM
07:53
Overcast
36°F / 2°C 34°F / 1°C 93% 29.71 in
(1006 mb)
SW 3.5 mph
(SW 6 kph)
0.00 in
(0.00 mm)
10SM
06:53
Overcast
Light Rain
36°F / 2°C 34°F / 1°C 93% 29.74 in
(1007 mb)
SSW 8.1 mph
(SSW 13 kph)
0.03 in
(0.76 mm)
10SM
06:31
Overcast
Light Rain
36°F / 2°C 32°F / 0°C 87% 29.74 in
(1007 mb)
SW 10.4 mph
(SW 17 kph)
0.02 in
(0.51 mm)
9SM
05:53
Overcast
Light Rain
37°F / 3°C 30°F / -1°C 75% 29.74 in
(1007 mb)
SSW 13.8 mph
(SSW 22 kph)
0.00 in
(0.00 mm)
10SM
04:53
Overcast
43°F / 6°C 21°F / -6°C 42% 29.74 in
(1007 mb)
SSW 8.1 mph
(SSW 13 kph)
- 10SM
03:53
Overcast
43°F / 6°C 19°F / -7°C 39% 29.74 in
(1007 mb)
SW 6.9 mph
(SW 11 kph)
- 10SM
02:53
Overcast
43°F / 6°C 19°F / -7°C 39% 29.77 in
(1008 mb)
SW 8.1 mph
(SW 13 kph)
- 10SM
01:53
Overcast
43°F / 6°C 19°F / -7°C 39% 29.8 in
(1009 mb)
SSE 6.9 mph
(SSE 11 kph)
- 10SM
00:53
Clear
39°F / 4°C 21°F / -6°C 48% 29.83 in
(1010 mb)
SSE 5.8 mph
(SSE 9 kph)
- 10SM
Time Weather Temperature Dewpoint Humidity Pressure Winds Precip Visibility


Weather for websites

WeatherForYou.com, LLC is not responsible for any damages or problems caused by this service. Current weather conditions are obtained from the closest station including government and personal stations which may have varying degrees of accuracy. Weather forecasts are derived from the NOAA NDFD. Like all things, this site belongs to Jesus Christ... He just trusts us to maintain it. If you have any questions or comments email webmaster@weatherforyou.com

Copyright © 2016, WeatherForYou.com LLC. All rights reserved.